{"data":{"norad_id":61677,"epoch":"2026-09-21T16:54:41.727168Z","epoch_age_seconds":84344,"freshness":"FRESH","line1":"1 61677U 24193S   26264.70464962 -.00000025  00000+0  10400-4 0  9990","line2":"2 61677  53.1598 255.8385 0001235  86.6080 273.5064 15.34389548106605","mean_motion":15.34389548,"eccentricity":0.0001235,"inclination_deg":53.1598,"raan_deg":255.8385,"arg_perigee_deg":86.608,"mean_anomaly_deg":273.5064,"bstar":1.04e-5,"rev_number":10660,"period_min":93.848397356262,"perigee_km":461.88945832383,"apogee_km":463.57915353639,"semimajor_km":6840.8713059301,"source":"CELESTRAK","updated_at":"2026-09-22T09:00:49.403101Z"}}